{"data":{"norad_id":57602,"epoch":"2026-05-24T23:04:56.191008Z","epoch_age_seconds":72278,"freshness":"FRESH","line1":"1 57602U 23119A   26144.96176147 -.00000994  00000+0 -26565-4 0  9995","line2":"2 57602  43.0042  10.6306 0002201 253.5464 106.5146 15.27588987154693","mean_motion":15.27588987,"eccentricity":0.0002201,"inclination_deg":43.0042,"raan_deg":10.6306,"arg_perigee_deg":253.5464,"mean_anomaly_deg":106.5146,"bstar":-2.6565e-5,"rev_number":15469,"period_min":94.266194130398,"perigee_km":481.51204472372,"apogee_km":484.53232699734,"semimajor_km":6861.1591858605,"source":"CELESTRAK","updated_at":"2026-05-25T13:38:18.334963Z"}}